Weather History for KOXC - December, 2011

Change the Weather History Date:

Friday, December 30, 2011

  Actual Average Record
Temperature  
Mean Temperature 36 °F -  
Max Temperature 46 °F 34 °F 48 °F (2003)
Min Temperature 26 °F 21 °F 10 °F (1998)
Degree Days  
Heating Degree Days 29    
Moisture  
Dew Point 26 °F    
Average Humidity 69    
Maximum Humidity 87    
Minimum Humidity 50    
Precipitation  
Precipitation 0.00 in - - ()
Sea Level Pressure  
Sea Level Pressure 30.03 in    
Wind  
Wind Speed 2 mph (SE)    
Max Wind Speed 8 mph    
Max Gust Speed -    
Visibility 10 miles    
Events      
Averages and records for this station are not official NWS values.
T = Trace of Precipitation, MM = Missing Value Source: NWS Daily Summary

Daily Weather History Graph

Daily Weather History Graph

Search for Another Location

Airport or City:

Trip Planner

Search our weather history database for the weather conditions in past years. The results will help you decide how hot, cold, wet, or windy it might be!

Date:

Astronomy

Dec. 30, 2011 Rise Set
Actual Time 7:18 AM EST 4:31 PM EST
Civil Twilight 6:47 AM EST 5:02 PM EST
Nautical Twilight 6:12 AM EST 5:37 PM EST
Astronomical Twilight 5:38 AM EST 6:11 PM EST
Moon 10:32 AM EST 11:09 PM EST
Length of Visible Light 10h 15m
Length of Day
9h 12m
Waxing Crescent, 35% of the Moon is Illuminated
Dec 30
Waxing Crescent
Jan 1
First Quarter
Jan 9
Full
Jan 16
Last Quarter
Jan 23
New

Hourly Weather History & Observations

Time (EST) Temp. Windchill Dew Point Humidity Pressure Visibility Wind Dir Wind Speed Gust Speed Precip Events Conditions
12:35 AM 28.4 °F - 12.2 °F 51% 30.02 in 10.0 mi Calm Calm - N/A   Overcast
12:55 AM 28.4 °F - 15.8 °F 59% 30.01 in 10.0 mi Calm Calm - N/A   Overcast
1:15 AM 26.6 °F - 15.8 °F 64% 30.01 in 10.0 mi Calm Calm - N/A   Overcast
1:35 AM 28.4 °F - 17.6 °F 64% 30.02 in 10.0 mi Calm Calm - N/A   Overcast
1:55 AM 28.4 °F - 19.4 °F 69% 30.02 in 10.0 mi Calm Calm - N/A   Overcast
2:15 AM 28.4 °F - 19.4 °F 69% 30.02 in 10.0 mi Calm Calm - N/A   Overcast
2:35 AM 28.4 °F - 19.4 °F 69% 30.02 in 10.0 mi Calm Calm - N/A   Overcast
2:55 AM 28.4 °F - 19.4 °F 69% 30.02 in 10.0 mi Calm Calm - N/A   Overcast
3:15 AM 28.4 °F 24.6 °F 17.6 °F 64% 30.01 in 10.0 mi East 3.5 mph - N/A   Overcast
3:55 AM 28.4 °F - 19.4 °F 69% 30.02 in 10.0 mi Calm Calm - N/A   Overcast
4:15 AM 28.4 °F - 19.4 °F 69% 30.02 in 10.0 mi Calm Calm - N/A   Overcast
4:35 AM 28.4 °F 23.3 °F 17.6 °F 64% 30.01 in 10.0 mi ESE 4.6 mph - N/A   Overcast
4:55 AM 30.2 °F 25.4 °F 17.6 °F 60% 30.01 in 10.0 mi ESE 4.6 mph - N/A   Overcast
5:35 AM 30.2 °F 26.7 °F 19.4 °F 64% 30.01 in 10.0 mi ESE 3.5 mph - N/A   Overcast
5:45 AM 30.2 °F 24.3 °F 21.2 °F 69% 30.02 in 10.0 mi SSE 5.8 mph - N/A   Overcast
8:45 AM 35.6 °F 32.8 °F 28.4 °F 75% 30.05 in 10.0 mi SSE 3.5 mph - N/A   Overcast
9:45 AM 37.4 °F - 30.2 °F 75% 30.06 in 10.0 mi Calm Calm - N/A   Overcast
10:45 AM 39.2 °F 35.0 °F 30.2 °F 70% 30.06 in 10.0 mi South 5.8 mph - N/A   Overcast
11:45 AM 42.8 °F 39.3 °F 30.2 °F 61% 30.03 in 10.0 mi WSW 5.8 mph - N/A   Mostly Cloudy
12:45 PM 46.4 °F 42.4 °F 32.0 °F 57% 30.01 in 10.0 mi South 8.1 mph - N/A   Mostly Cloudy
3:45 PM 46.4 °F 44.3 °F 28.4 °F 50% 30.03 in 10.0 mi SSW 4.6 mph - N/A   Clear
4:50 PM 42.8 °F 38.6 °F 28.4 °F 57% 30.04 in 10.0 mi SSE 6.9 mph - N/A   Clear
5:45 PM 42.8 °F 39.3 °F 28.4 °F 57% 30.04 in 10.0 mi SSE 5.8 mph - N/A   Clear
6:50 PM 41.0 °F 35.8 °F 30.2 °F 65% 30.05 in 10.0 mi SSE 8.1 mph - N/A   Overcast
7:45 PM 41.0 °F 35.8 °F 33.8 °F 76% 30.05 in 10.0 mi SSE 8.1 mph - N/A   Clear
9:15 PM 39.2 °F 34.2 °F 35.6 °F 87% 30.04 in 10.0 mi SE 6.9 mph - N/A   Scattered Clouds
9:35 PM 41.0 °F 36.4 °F 35.6 °F 81% 30.04 in 10.0 mi SE 6.9 mph - N/A   Overcast
9:55 PM 41.0 °F 36.4 °F 37.4 °F 87% 30.03 in 10.0 mi SE 6.9 mph - N/A   Mostly Cloudy
10:35 PM 41.0 °F 36.4 °F 37.4 °F 87% 30.02 in 10.0 mi SE 6.9 mph - N/A   Scattered Clouds
10:55 PM 41.0 °F 36.4 °F 37.4 °F 87% 30.02 in 10.0 mi SE 6.9 mph - N/A   Clear
11:15 PM 41.0 °F 36.4 °F 37.4 °F 87% 30.01 in 10.0 mi SE 6.9 mph - N/A   Clear
11:55 PM 41.0 °F 36.4 °F 37.4 °F 87% 30.00 in 10.0 mi SE 6.9 mph - N/A   Clear